Regional Weather Roundup
Issued by NWS Nashville, TN

Home | Current Version | Previous Version | Text Only | Print | Product List | Glossary On
Versions: 1 2 3 4 5 6 7 8 9 10 11 12 13 14 15 16 17 18 19 20 21 22 23 24 25 26 27 28 29 30 31 32 33 34 35 36 37 38 39 40 41 42 43 44 45 46 47 48 49 50
000
ASUS44 KOHX 261010
RWROHX
MIDDLE TENNESSEE HOURLY WEATHER ROUNDUP
NATIONAL WEATHER SERVICE NASHVILLE TN
500 AM CDT TUE MAY 26 2015

NOTE: "FAIR" INDICATES FEW OR NO CLOUDS BELOW 12,000 FEET WITH
NO SIGNIFICANT WEATHER AND/OR OBSTRUCTIONS TO VISIBILITY.

* THESE REPORTS ARE NOT UNDER NWS QUALITY CONTROL AND MAY NOT
  REPORT WEATHER SUCH AS PRECIPITATION AND FOG.


TNZ005>011-023>034-057-059-062>066-078-080-261100
...NORTHERN MIDDLE TENNESSEE...

CITY           SKY/WX    TMP DP  RH WIND       PRES   REMARKS
CASTALIAN SPRG   N/A     63  63 100 CALM      30.11F
CLARKSVILLE    MOCLDY    66  64  93 S6        30.05R
CROSSVILLE     CLOUDY    69  64  84 S9        30.19S
GLADEVILLE*      N/A     64  63  94 S1        30.04S
JOELTON*         N/A     64  64 100 CALM      30.00S
LIVINGSTON     PTCLDY    69  63  81 S6        30.15R
MOUNT JULIET*    N/A     64  64 100 CALM      29.93F
NASHVILLE      MOCLDY    66  64  93 S7        30.09S
OLD HICKORY*     N/A     66  66 100 CALM      29.71F
PORTLAND       PTCLDY    64  63  94 SE7       30.08F
ROCKWOOD       CLOUDY    65  65 100 CALM      30.19  VSB 1/4
SMYRNA         PTCLDY    64  64 100 CALM      30.10S
SPARTA         CLEAR     66  64  94 S3        30.13S
$$
TNZ056-058-060-061-075>077-079-093>097-261100
...SOUTHERN MIDDLE TENNESSEE...

CITY           SKY/WX    TMP DP  RH WIND       PRES   REMARKS
COLUMBIA       PTCLDY    66  64  94 SE5       30.07S
LEWISBURG      PTCLDY    66  63  90 S6        30.09S
MANCHESTER*      N/A     64   0   7 CALM      30.07S
MCMINNVILLE    CLEAR     66  66 100 CALM      30.13S
MOUNT PLEASANT   N/A     66  64  94 SE1       30.01S
SHELBYVILLE    CLEAR     66  64  94 SE5       30.12S
TULLAHOMA      PTCLDY    64  63  94 SE7       30.13S
WINCHESTER     CLOUDY    68  66  94 SE10      30.13S
$$


...KEY TO REMARKS...
VSB - VISIBILITY IN MILES
WCI - WIND CHILL INDEX
HX  - HEAT INDEX



USA.gov is the U.S. government's official web portal to all federal, state and local government web resources and services.